Weather History for Cavalier, ND

Change the Weather History Date:

Wednesday, November 14, 2012

  Actual Average (KGAF) Record (KGAF)
Temperature  
Mean Temperature 20 °F -  
Max Temperature 35 °F 35 °F 63 °F (1953)
Min Temperature 5 °F 18 °F -9 °F (1959)
Degree Days  
Heating Degree Days 45    
Moisture  
Dew Point 17 °F    
Average Humidity 91    
Maximum Humidity 100    
Minimum Humidity 80    
Precipitation  
Precipitation 0.00 in - - ()
Sea Level Pressure  
Sea Level Pressure 30.09 in    
Wind  
Wind Speed 6 mph (SSW)    
Max Wind Speed 17 mph    
Max Gust Speed 22 mph    
Visibility 6 miles    
Events Fog    
Averages and records for this station are not official NWS values.
T = Trace of Precipitation, MM = Missing Value Source: NWS Daily Summary

Daily Weather History Graph

Daily Weather History Graph

Search for Another Location

Airport:

Trip Planner

Search our weather history database for the weather conditions in past years. The results will help you decide how hot, cold, wet, or windy it might be!

Date:

Astronomy

Nov. 14, 2012 Rise Set
Actual Time 7:38 AM CST 4:50 PM CST
Civil Twilight 7:04 AM CST 5:25 PM CST
Nautical Twilight 6:25 AM CST 6:03 PM CST
Astronomical Twilight 5:48 AM CST 6:40 PM CST
Moon 8:34 AM CST (11/14) 5:35 PM CST (11/14)
Length of Visible Light 10h 21m
Length of Day
9h 12m
New Moon, 1% of the Moon is Illuminated
Nov 14
New Moon
Nov 20
First Quarter
Nov 28
Full
Dec 6
Last Quarter
Dec 13
New

Hourly Weather History & Observations

Time (CST) Temp. Windchill Dew Point Humidity Pressure Visibility Wind Dir Wind Speed Gust Speed Precip Events Conditions
12:15 AM 6.8 °F - 3.2 °F 85% 30.24 in 9.0 mi Calm Calm - N/A   Clear
12:35 AM 6.8 °F - 5.0 °F 92% 30.24 in 8.0 mi Calm Calm - N/A   Partly Cloudy
12:55 AM 6.8 °F - 5.0 °F 92% 30.24 in 9.0 mi Calm Calm - N/A   Partly Cloudy
1:15 AM 6.8 °F -0.1 °F 5.0 °F 92% 30.24 in 9.0 mi WNW 3.5 mph - N/A   Clear
1:35 AM 8.6 °F - 5.0 °F 85% 30.23 in 8.0 mi Calm Calm - N/A   Clear
1:55 AM 5.0 °F -4.1 °F 1.4 °F 85% 30.22 in 9.0 mi South 4.6 mph - N/A   Clear
2:15 AM 6.8 °F -0.1 °F 3.2 °F 85% 30.22 in 9.0 mi SW 3.5 mph - N/A   Mostly Cloudy
2:35 AM 6.8 °F - 3.2 °F 85% 30.22 in 9.0 mi Calm Calm - N/A   Mostly Cloudy
2:55 AM 6.8 °F - 5.0 °F 92% 30.23 in 9.0 mi Calm Calm - N/A   Mostly Cloudy
3:15 AM 8.6 °F 2.0 °F 5.0 °F 85% 30.22 in 8.0 mi SSW 3.5 mph - N/A   Mostly Cloudy
3:35 AM 8.6 °F 2.0 °F 5.0 °F 85% 30.22 in 7.0 mi South 3.5 mph - N/A   Scattered Clouds
3:55 AM 6.8 °F -0.1 °F 3.2 °F 85% 30.22 in 9.0 mi West 3.5 mph - N/A   Clear
4:15 AM 6.8 °F -2.0 °F 5.0 °F 92% 30.21 in 8.0 mi SW 4.6 mph - N/A   Clear
4:35 AM 6.8 °F -2.0 °F 3.2 °F 85% 30.21 in 9.0 mi SSW 4.6 mph - N/A   Clear
4:55 AM 8.6 °F 0.1 °F 6.8 °F 92% 30.21 in 5.0 mi South 4.6 mph - N/A   Clear
5:15 AM 6.8 °F -4.8 °F 5.0 °F 92% 30.20 in 7.0 mi South 6.9 mph - N/A   Clear
5:35 AM 6.8 °F -3.5 °F 5.0 °F 92% 30.19 in 8.0 mi South 5.8 mph - N/A   Clear
5:55 AM 8.6 °F -1.3 °F 5.0 °F 85% 30.18 in 8.0 mi South 5.8 mph - N/A   Clear
6:15 AM 8.6 °F 2.0 °F 5.0 °F 85% 30.18 in 8.0 mi SW 3.5 mph - N/A   Clear
6:35 AM 8.6 °F - 6.8 °F 92% 30.18 in 8.0 mi Calm Calm - N/A   Clear
6:55 AM 8.6 °F 0.1 °F 6.8 °F 92% 30.17 in 7.0 mi South 4.6 mph - N/A   Clear
7:15 AM 8.6 °F -1.3 °F 5.0 °F 85% 30.17 in 7.0 mi South 5.8 mph - N/A   Clear
7:35 AM 8.6 °F -1.3 °F 5.0 °F 85% 30.16 in 5.0 mi South 5.8 mph - N/A   Clear
7:55 AM 8.6 °F 0.1 °F 6.8 °F 92% 30.16 in 5.0 mi South 4.6 mph - N/A   Clear
8:15 AM 6.8 °F -3.5 °F 5.0 °F 92% 30.16 in 8.0 mi South 5.8 mph - N/A   Clear
8:35 AM 8.6 °F -2.6 °F 6.8 °F 92% 30.15 in 7.0 mi South 6.9 mph - N/A   Clear
8:55 AM 10.4 °F -1.5 °F 8.6 °F 92% 30.15 in 6.0 mi South 8.1 mph - N/A   Clear
9:15 AM 14.0 °F 5.1 °F 10.4 °F 86% 30.15 in 5.0 mi South 5.8 mph - N/A   Clear
9:35 AM 15.8 °F 6.1 °F 14.0 °F 93% 30.14 in 5.0 mi South 6.9 mph - N/A   Clear
9:55 AM 15.8 °F 5.1 °F 15.8 °F 100% 30.13 in 5.0 mi South 8.1 mph - N/A   Clear
10:15 AM 17.6 °F 6.4 °F 15.8 °F 93% 30.13 in 7.0 mi South 9.2 mph - N/A   Scattered Clouds
10:35 AM 19.4 °F 9.5 °F 17.6 °F 93% 30.13 in 8.0 mi South 8.1 mph - N/A   Scattered Clouds
10:55 AM 19.4 °F 7.9 °F 17.6 °F 93% 30.12 in 7.0 mi South 10.4 mph - N/A   Clear
11:15 AM 23.0 °F 11.7 °F 17.6 °F 80% 30.11 in 7.0 mi South 11.5 mph - N/A   Clear
11:35 AM 23.0 °F 13.1 °F 19.4 °F 86% 30.10 in 6.0 mi South 9.2 mph - N/A   Clear
11:55 AM 23.0 °F 12.4 °F 19.4 °F 86% 30.09 in 5.0 mi South 10.4 mph - N/A   Clear
12:15 PM 24.8 °F 14.6 °F 19.4 °F 80% 30.08 in 5.0 mi South 10.4 mph - N/A   Clear
12:35 PM 24.8 °F 14.0 °F 21.2 °F 86% 30.07 in 5.0 mi South 11.5 mph - N/A   Clear
12:55 PM 24.8 °F 14.0 °F 23.0 °F 93% 30.06 in 5.0 mi South 11.5 mph - N/A   Clear
1:15 PM 26.6 °F 16.2 °F 23.0 °F 86% 30.05 in 5.0 mi South 11.5 mph - N/A   Scattered Clouds
1:35 PM 26.6 °F 15.7 °F 24.8 °F 93% 30.05 in 3.0 mi South 12.7 mph - N/A   Overcast
1:55 PM 26.6 °F 16.2 °F 26.6 °F 100% 30.04 in 3.0 mi South 11.5 mph - N/A   Overcast
2:15 PM 26.6 °F 16.8 °F 26.6 °F 100% 30.03 in 2.5 mi South 10.4 mph - N/A   Overcast
2:35 PM 28.4 °F 17.5 °F 26.6 °F 93% 30.02 in 2.5 mi South 13.8 mph - N/A   Overcast
2:55 PM 28.4 °F 19.1 °F 28.4 °F 100% 30.02 in 2.5 mi South 10.4 mph - N/A   Overcast
3:15 PM 28.4 °F 19.7 °F 26.6 °F 93% 30.01 in 3.0 mi South 9.2 mph - N/A   Mostly Cloudy
3:35 PM 28.4 °F 19.1 °F 26.6 °F 93% 30.01 in 3.0 mi South 10.4 mph - N/A   Partly Cloudy
3:55 PM 28.4 °F 19.1 °F 26.6 °F 93% 30.01 in 3.0 mi South 10.4 mph - N/A   Clear
4:15 PM 28.4 °F 19.1 °F 28.4 °F 100% 30.00 in 3.0 mi South 10.4 mph - N/A   Clear
4:35 PM 28.4 °F 19.7 °F 28.4 °F 100% 30.00 in 2.5 mi South 9.2 mph - N/A   Clear
4:55 PM 28.4 °F 20.4 °F 26.6 °F 93% 29.99 in 2.5 mi South 8.1 mph - N/A   Clear
5:15 PM 28.4 °F 20.4 °F 28.4 °F 100% 29.98 in 2.0 mi South 8.1 mph - N/A   Clear
5:35 PM 26.6 °F 16.2 °F 26.6 °F 100% 29.98 in 2.5 mi South 11.5 mph - N/A   Scattered Clouds
5:55 PM 26.6 °F 16.8 °F 26.6 °F 100% 29.98 in 0.2 mi South 10.4 mph - N/A Fog Light Freezing Fog
6:15 PM 28.4 °F 19.1 °F 28.4 °F 100% 29.97 in 0.2 mi South 10.4 mph - N/A Fog Light Freezing Fog
6:35 PM 28.4 °F 19.7 °F 28.4 °F 100% 29.97 in 0.8 mi South 9.2 mph - N/A   Overcast
6:55 PM 28.4 °F 19.1 °F 28.4 °F 100% 29.96 in 3.0 mi SSW 10.4 mph - N/A   Mostly Cloudy
7:15 PM 28.4 °F 19.1 °F 28.4 °F 100% 29.96 in 4.0 mi SSW 10.4 mph - N/A   Clear
7:35 PM 28.4 °F 19.1 °F 28.4 °F 100% 29.96 in 7.0 mi SSW 10.4 mph - N/A   Clear
7:55 PM 26.6 °F 18.2 °F 26.6 °F 100% 29.96 in 7.0 mi SSW 8.1 mph - N/A   Clear
8:35 PM 28.4 °F 20.4 °F 28.4 °F 100% 29.96 in 10.0 mi SW 8.1 mph - N/A   Mostly Cloudy
8:55 PM 26.6 °F 18.2 °F 26.6 °F 100% 29.95 in 10.0 mi SW 8.1 mph - N/A   Partly Cloudy
9:15 PM 28.4 °F 19.7 °F 26.6 °F 93% 29.95 in 10.0 mi SSW 9.2 mph - N/A   Scattered Clouds
9:35 PM 32.0 °F 24.8 °F 30.2 °F 93% 29.96 in 10.0 mi WSW 8.1 mph - N/A   Overcast
9:55 PM 32.0 °F 23.6 °F 30.2 °F 93% 29.95 in 10.0 mi WSW 10.4 mph - N/A   Overcast
10:15 PM 35.6 °F 27.5 °F 32.0 °F 87% 29.96 in 10.0 mi West 11.5 mph - N/A   Mostly Cloudy
10:35 PM 35.6 °F 26.6 °F 32.0 °F 87% 29.96 in 10.0 mi WSW 13.8 mph - N/A   Partly Cloudy
10:55 PM 35.6 °F 25.9 °F 30.2 °F 81% 29.95 in 10.0 mi WSW 16.1 mph 20.7 mph N/A   Clear
11:15 PM 35.6 °F 27.5 °F 30.2 °F 81% 29.96 in 10.0 mi West 11.5 mph 20.7 mph N/A   Clear
11:35 PM 33.8 °F 23.5 °F 28.4 °F 81% 29.96 in 10.0 mi West 16.1 mph 21.9 mph N/A   Clear
11:55 PM 33.8 °F 23.2 °F 28.4 °F 81% 29.97 in 10.0 mi West 17.3 mph - N/A   Clear